Time,TemperatureF,DewpointF,PressureIn,WindDirection,WindDirectionDegrees,WindSpeedMPH,WindSpeedGustMPH,Humidity,HourlyPrecipIn,Conditions,Clouds,dailyrainin,SoftwareType,DateUTC
2013-05-25 00:01:00,42.1,38.5,29.99,SSE,153,0.0,0.0,87,0.00,,---,0.00,VWS V13.00,2013-05-25 07:01:00,
2013-05-25 00:06:00,42.2,38.6,29.99,SSE,153,0.0,0.0,87,0.00,,---,0.00,VWS V13.00,2013-05-25 07:06:00,
2013-05-25 00:11:00,42.2,38.6,29.99,SSE,153,2.0,2.0,87,0.00,,---,0.00,VWS V13.00,2013-05-25 07:11:00,
2013-05-25 00:16:00,42.2,38.6,29.99,SSE,153,0.0,2.0,87,0.00,,---,0.00,VWS V13.00,2013-05-25 07:16:00,
2013-05-25 00:21:00,42.2,38.6,29.99,SSE,153,0.0,2.0,87,0.00,,---,0.00,VWS V13.00,2013-05-25 07:21:00,
2013-05-25 00:26:00,42.1,38.5,29.99,SSE,153,2.0,2.0,87,0.00,,---,0.00,VWS V13.00,2013-05-25 07:26:00,
2013-05-25 00:31:00,42.1,38.5,29.99,SSE,153,0.0,0.0,87,0.00,,---,0.00,VWS V13.00,2013-05-25 07:31:00,
2013-05-25 00:36:00,42.0,38.4,29.99,SSE,153,1.0,2.0,87,0.00,,---,0.00,VWS V13.00,2013-05-25 07:36:00,
2013-05-25 00:41:00,41.9,38.3,29.99,SSE,153,1.0,2.0,87,0.00,,---,0.00,VWS V13.00,2013-05-25 07:41:00,
2013-05-25 00:46:00,41.7,38.1,29.99,SSE,153,2.0,2.0,87,0.00,,---,0.00,VWS V13.00,2013-05-25 07:46:00,
2013-05-25 00:51:00,41.6,38.0,29.98,SSE,153,1.0,2.0,87,0.00,,---,0.00,VWS V13.00,2013-05-25 07:51:00,
2013-05-25 00:56:00,41.5,37.9,29.99,SSE,153,1.0,2.0,87,0.00,,---,0.00,VWS V13.00,2013-05-25 07:56:00,
2013-05-25 01:01:00,41.3,37.7,29.99,SSE,153,1.0,2.0,87,0.00,,---,0.00,VWS V13.00,2013-05-25 08:01:00,
2013-05-25 01:06:00,41.1,37.5,29.99,SSE,153,1.0,2.0,87,0.00,,---,0.00,VWS V13.00,2013-05-25 08:06:00,
2013-05-25 01:11:00,41.0,37.4,29.98,SSE,153,2.0,3.0,87,0.00,,---,0.00,VWS V13.00,2013-05-25 08:11:00,
2013-05-25 01:16:00,40.9,37.3,29.98,SSE,153,2.0,3.0,87,0.00,,---,0.00,VWS V13.00,2013-05-25 08:16:00,
2013-05-25 01:21:00,40.7,37.1,29.98,SSE,153,2.0,3.0,87,0.00,,---,0.00,VWS V13.00,2013-05-25 08:21:00,
2013-05-25 01:26:00,40.6,37.0,29.98,SSE,153,2.0,3.0,87,0.00,,---,0.00,VWS V13.00,2013-05-25 08:26:00,
2013-05-25 01:31:00,40.4,36.8,29.98,SSE,153,3.0,3.0,87,0.00,,---,0.00,VWS V13.00,2013-05-25 08:31:00,
2013-05-25 01:36:00,40.2,36.7,29.98,SSE,153,2.0,3.0,87,0.00,,---,0.00,VWS V13.00,2013-05-25 08:36:00,
2013-05-25 01:41:00,40.0,36.7,29.98,SSE,153,0.0,3.0,88,0.00,,---,0.00,VWS V13.00,2013-05-25 08:41:00,
2013-05-25 01:46:00,39.9,36.6,29.98,SSE,153,0.0,3.0,88,0.00,,---,0.00,VWS V13.00,2013-05-25 08:46:00,
2013-05-25 01:51:00,39.7,36.2,29.98,SSE,153,1.0,3.0,87,0.00,,---,0.00,VWS V13.00,2013-05-25 08:51:00,
2013-05-25 01:56:00,39.5,36.0,29.98,SSE,153,2.0,3.0,87,0.00,,---,0.00,VWS V13.00,2013-05-25 08:56:00,
2013-05-25 02:01:00,39.3,35.8,29.99,SSE,153,0.0,2.0,87,0.00,,---,0.00,VWS V13.00,2013-05-25 09:01:00,
2013-05-25 02:06:00,39.1,35.8,29.99,SSE,153,1.0,2.0,88,0.00,,---,0.00,VWS V13.00,2013-05-25 09:06:00,
2013-05-25 02:11:00,38.9,35.7,29.99,SSE,153,2.0,2.0,88,0.00,,---,0.00,VWS V13.00,2013-05-25 09:11:00,
2013-05-25 02:16:00,38.7,35.5,29.99,SSE,153,2.0,3.0,88,0.00,,---,0.00,VWS V13.00,2013-05-25 09:16:00,
2013-05-25 02:21:00,38.5,35.3,29.99,SSE,154,2.0,3.0,88,0.00,,---,0.00,VWS V13.00,2013-05-25 09:21:00,
2013-05-25 02:25:00,38.3,35.1,29.98,SSE,154,2.0,3.0,88,0.00,,---,0.00,VWS V13.00,2013-05-25 09:25:00,
2013-05-25 02:31:00,38.1,34.9,29.98,SSE,153,2.0,3.0,88,0.00,,---,0.00,VWS V13.00,2013-05-25 09:31:00,
2013-05-25 02:36:00,37.9,34.7,29.98,SSE,156,2.0,3.0,88,0.00,,---,0.00,VWS V13.00,2013-05-25 09:36:00,
2013-05-25 02:41:00,37.7,34.5,29.99,SSE,156,2.0,3.0,88,0.00,,---,0.00,VWS V13.00,2013-05-25 09:41:00,
2013-05-25 02:46:00,37.5,34.3,29.99,SSE,156,1.0,3.0,88,0.00,,---,0.00,VWS V13.00,2013-05-25 09:46:00,
2013-05-25 02:51:00,37.3,34.1,29.99,SSE,156,2.0,3.0,88,0.00,,---,0.00,VWS V13.00,2013-05-25 09:51:00,
2013-05-25 02:55:00,37.2,34.0,29.99,SSE,156,1.0,3.0,88,0.00,,---,0.00,VWS V13.00,2013-05-25 09:55:00,
2013-05-25 03:00:00,37.0,34.1,29.98,SSE,156,1.0,2.0,89,0.00,,---,0.00,VWS V13.00,2013-05-25 10:00:00,
2013-05-25 03:05:00,36.9,34.0,29.99,SSE,156,1.0,2.0,89,0.00,,---,0.00,VWS V13.00,2013-05-25 10:05:00,
2013-05-25 03:10:00,36.8,33.9,29.99,SSE,156,0.0,2.0,89,0.00,,---,0.00,VWS V13.00,2013-05-25 10:10:00,
2013-05-25 03:15:00,36.7,33.8,29.98,SSE,156,0.0,2.0,89,0.00,,---,0.00,VWS V13.00,2013-05-25 10:15:00,
2013-05-25 03:20:00,36.6,33.7,29.98,SSE,156,1.0,2.0,89,0.00,,---,0.00,VWS V13.00,2013-05-25 10:20:00,
2013-05-25 03:25:00,36.4,33.5,29.98,SSE,156,1.0,2.0,89,0.00,,---,0.00,VWS V13.00,2013-05-25 10:25:00,
2013-05-25 03:30:00,36.3,33.4,29.98,SSE,156,0.0,1.0,89,0.00,,---,0.00,VWS V13.00,2013-05-25 10:30:00,
2013-05-25 03:35:00,36.2,33.3,29.98,SSE,156,0.0,2.0,89,0.00,,---,0.00,VWS V13.00,2013-05-25 10:35:00,
2013-05-25 03:40:00,36.1,33.2,29.98,SSE,156,1.0,2.0,89,0.00,,---,0.00,VWS V13.00,2013-05-25 10:40:00,
2013-05-25 03:45:00,35.9,33.0,29.98,SSE,156,1.0,2.0,89,0.00,,---,0.00,VWS V13.00,2013-05-25 10:45:00,
2013-05-25 03:50:00,35.8,32.9,29.98,SSE,156,0.0,2.0,89,0.00,,---,0.00,VWS V13.00,2013-05-25 10:50:00,
2013-05-25 03:55:00,35.6,32.7,29.98,SSE,156,0.0,2.0,89,0.00,,---,0.00,VWS V13.00,2013-05-25 10:55:00,
2013-05-25 04:00:00,35.5,32.6,29.99,SSE,156,1.0,2.0,89,0.00,,---,0.00,VWS V13.00,2013-05-25 11:00:00,
2013-05-25 04:05:00,35.3,32.4,29.99,SSE,156,1.0,2.0,89,0.00,,---,0.00,VWS V13.00,2013-05-25 11:05:00,
2013-05-25 04:10:00,35.2,32.3,29.99,SSE,156,1.0,2.0,89,0.00,,---,0.00,VWS V13.00,2013-05-25 11:10:00,
2013-05-25 04:15:00,35.0,32.1,29.99,SSE,156,0.0,2.0,89,0.00,,---,0.00,VWS V13.00,2013-05-25 11:15:00,
2013-05-25 04:20:00,34.9,32.0,29.99,SSE,156,0.0,2.0,89,0.00,,---,0.00,VWS V13.00,2013-05-25 11:20:00,
2013-05-25 04:25:00,34.7,31.8,29.99,SSE,156,1.0,2.0,89,0.00,,---,0.00,VWS V13.00,2013-05-25 11:25:00,
2013-05-25 04:30:00,34.6,31.7,29.99,SSE,156,2.0,2.0,89,0.00,,---,0.00,VWS V13.00,2013-05-25 11:30:00,
2013-05-25 04:35:00,34.5,31.9,29.99,SSE,156,2.0,3.0,90,0.00,,---,0.00,VWS V13.00,2013-05-25 11:35:00,
2013-05-25 04:40:00,34.4,31.8,30.00,SSE,156,1.0,3.0,90,0.00,,---,0.00,VWS V13.00,2013-05-25 11:40:00,
2013-05-25 04:45:00,34.4,31.8,30.00,SSE,156,1.0,3.0,90,0.00,,---,0.00,VWS V13.00,2013-05-25 11:45:00,
2013-05-25 04:50:00,34.4,31.8,30.00,SSE,156,1.0,3.0,90,0.00,,---,0.00,VWS V13.00,2013-05-25 11:50:00,
2013-05-25 04:55:00,34.4,31.8,30.00,SSE,156,1.0,3.0,90,0.00,,---,0.00,VWS V13.00,2013-05-25 11:55:00,
2013-05-25 05:00:00,34.3,31.7,30.00,SSE,156,1.0,2.0,90,0.00,,---,0.00,VWS V13.00,2013-05-25 12:00:00,
2013-05-25 05:05:00,34.2,31.6,30.00,SSE,156,1.0,2.0,90,0.00,,---,0.00,VWS V13.00,2013-05-25 12:05:00,
2013-05-25 05:10:00,34.1,31.5,30.00,SSE,156,0.0,2.0,90,0.00,,---,0.00,VWS V13.00,2013-05-25 12:10:00,
2013-05-25 05:15:00,34.1,31.5,30.00,SSE,156,1.0,2.0,90,0.00,,---,0.00,VWS V13.00,2013-05-25 12:15:00,
2013-05-25 05:20:00,34.0,31.4,30.00,SSE,156,2.0,2.0,90,0.00,,---,0.00,VWS V13.00,2013-05-25 12:20:00,
2013-05-25 05:25:00,33.9,31.3,30.00,SSE,156,2.0,2.0,90,0.00,,---,0.00,VWS V13.00,2013-05-25 12:25:00,
2013-05-25 05:30:00,33.9,31.3,30.00,SSE,156,3.0,3.0,90,0.00,,---,0.00,VWS V13.00,2013-05-25 12:30:00,
2013-05-25 05:35:00,33.9,31.3,30.00,SSE,156,1.0,3.0,90,0.00,,---,0.00,VWS V13.00,2013-05-25 12:35:00,
2013-05-25 05:40:00,33.9,31.6,30.00,SSE,156,1.0,3.0,91,0.00,,---,0.00,VWS V13.00,2013-05-25 12:40:00,
2013-05-25 05:45:00,34.0,31.6,30.01,SSE,156,0.0,3.0,91,0.00,,---,0.00,VWS V13.00,2013-05-25 12:45:00,
2013-05-25 05:50:00,34.0,31.6,30.01,SSE,156,0.0,3.0,91,0.00,,---,0.00,VWS V13.00,2013-05-25 12:50:00,
2013-05-25 05:55:00,34.2,31.9,30.01,SSE,156,0.0,3.0,91,0.00,,---,0.00,VWS V13.00,2013-05-25 12:55:00,
2013-05-25 06:00:00,34.3,32.0,30.02,SSE,156,0.0,0.0,91,0.00,,---,0.00,VWS V13.00,2013-05-25 13:00:00,
2013-05-25 06:05:00,34.4,32.0,30.02,SSE,156,0.0,0.0,91,0.00,,---,0.00,VWS V13.00,2013-05-25 13:05:00,
2013-05-25 06:10:00,34.4,32.0,30.02,SSE,156,0.0,0.0,91,0.00,,---,0.00,VWS V13.00,2013-05-25 13:10:00,
2013-05-25 06:15:00,34.9,32.8,30.02,SSE,156,0.0,0.0,92,0.00,,---,0.00,VWS V13.00,2013-05-25 13:15:00,
2013-05-25 06:20:00,35.5,33.4,30.02,SSE,156,0.0,0.0,92,0.00,,---,0.00,VWS V13.00,2013-05-25 13:20:00,
2013-05-25 06:25:00,36.2,34.1,30.02,SSE,156,0.0,0.0,92,0.00,,---,0.00,VWS V13.00,2013-05-25 13:25:00,
2013-05-25 06:30:00,36.7,34.6,30.02,SSE,156,0.0,0.0,92,0.00,,---,0.00,VWS V13.00,2013-05-25 13:30:00,
2013-05-25 06:35:00,37.0,34.9,30.02,SSE,156,0.0,0.0,92,0.00,,---,0.00,VWS V13.00,2013-05-25 13:35:00,
2013-05-25 06:40:00,37.3,35.2,30.02,SSE,156,0.0,0.0,92,0.00,,---,0.00,VWS V13.00,2013-05-25 13:40:00,
2013-05-25 06:45:00,37.6,35.5,30.02,SSE,156,0.0,0.0,92,0.00,,---,0.00,VWS V13.00,2013-05-25 13:45:00,
2013-05-25 06:50:00,38.0,36.2,30.02,SSE,156,0.0,0.0,93,0.00,,---,0.00,VWS V13.00,2013-05-25 13:50:00,
2013-05-25 06:55:00,38.4,36.3,30.02,SSE,156,0.0,0.0,92,0.00,,---,0.00,VWS V13.00,2013-05-25 13:55:00,
2013-05-25 07:00:00,38.8,36.7,30.02,SSE,156,0.0,0.0,92,0.00,,---,0.00,VWS V13.00,2013-05-25 14:00:00,
2013-05-25 07:05:00,39.4,37.5,30.02,SSE,156,0.0,0.0,93,0.00,,---,0.00,VWS V13.00,2013-05-25 14:05:00,
2013-05-25 07:10:00,40.0,38.1,30.02,SSE,156,0.0,0.0,93,0.00,,---,0.00,VWS V13.00,2013-05-25 14:10:00,
2013-05-25 07:15:00,40.7,38.8,30.01,SSE,156,0.0,3.0,93,0.00,,---,0.00,VWS V13.00,2013-05-25 14:15:00,
2013-05-25 07:20:00,41.6,39.7,30.01,SSE,156,0.0,3.0,93,0.00,,---,0.00,VWS V13.00,2013-05-25 14:20:00,
2013-05-25 07:25:00,42.3,40.2,30.01,SSE,164,0.0,3.0,92,0.00,,---,0.00,VWS V13.00,2013-05-25 14:25:00,
2013-05-25 07:30:00,42.7,40.5,30.01,SSE,165,0.0,1.0,92,0.00,,---,0.00,VWS V13.00,2013-05-25 14:30:00,
2013-05-25 07:35:00,42.9,40.5,30.01,SSE,165,0.0,1.0,91,0.00,,---,0.00,VWS V13.00,2013-05-25 14:35:00,
2013-05-25 07:40:00,43.1,40.4,30.01,SSE,164,0.0,1.0,90,0.00,,---,0.00,VWS V13.00,2013-05-25 14:40:00,
2013-05-25 07:45:00,43.3,40.3,30.01,SSE,165,0.0,1.0,89,0.00,,---,0.00,VWS V13.00,2013-05-25 14:45:00,
2013-05-25 07:50:00,43.6,40.6,30.01,SSE,165,0.0,2.0,89,0.00,,---,0.00,VWS V13.00,2013-05-25 14:50:00,
2013-05-25 07:55:00,43.8,40.5,30.01,SSE,164,0.0,2.0,88,0.00,,---,0.00,VWS V13.00,2013-05-25 14:55:00,
2013-05-25 08:00:00,44.1,40.8,30.01,SSE,162,2.0,3.0,88,0.00,,---,0.00,VWS V13.00,2013-05-25 15:00:00,
2013-05-25 08:05:00,44.3,40.7,30.01,SSE,162,0.0,3.0,87,0.00,,---,0.00,VWS V13.00,2013-05-25 15:05:00,
2013-05-25 08:10:00,44.5,40.9,30.01,SSE,162,0.0,3.0,87,0.00,,---,0.00,VWS V13.00,2013-05-25 15:10:00,
2013-05-25 08:15:00,44.9,41.3,30.01,SSE,162,0.0,3.0,87,0.00,,---,0.00,VWS V13.00,2013-05-25 15:15:00,
2013-05-25 08:20:00,45.1,41.5,30.01,SSE,161,0.0,3.0,87,0.00,,---,0.00,VWS V13.00,2013-05-25 15:20:00,
2013-05-25 08:25:00,45.4,41.5,30.01,SSE,162,0.0,3.0,86,0.00,,---,0.00,VWS V13.00,2013-05-25 15:25:00,
2013-05-25 08:30:00,45.7,41.8,30.01,SSE,161,0.0,2.0,86,0.00,,---,0.00,VWS V13.00,2013-05-25 15:30:00,
2013-05-25 08:35:00,46.2,42.2,30.01,SSE,160,2.0,2.0,86,0.00,,---,0.00,VWS V13.00,2013-05-25 15:35:00,
2013-05-25 08:40:00,46.6,42.3,30.01,SE,141,0.0,4.0,85,0.00,,---,0.00,VWS V13.00,2013-05-25 15:40:00,
2013-05-25 08:45:00,46.9,42.0,30.01,ESE,110,2.0,5.0,83,0.00,,---,0.00,VWS V13.00,2013-05-25 15:45:00,
2013-05-25 08:50:00,47.3,42.4,30.01,ENE,72,0.0,5.0,83,0.00,,---,0.00,VWS V13.00,2013-05-25 15:50:00,
2013-05-25 08:55:00,47.7,42.5,30.01,SE,133,4.0,5.0,82,0.00,,---,0.00,VWS V13.00,2013-05-25 15:55:00,
2013-05-25 09:00:00,48.0,42.5,30.01,SE,136,0.0,0.0,81,0.00,,---,0.00,VWS V13.00,2013-05-25 16:00:00,
2013-05-25 09:05:00,48.4,42.8,30.01,SE,129,4.0,5.0,81,0.00,,---,0.00,VWS V13.00,2013-05-25 16:05:00,
2013-05-25 09:10:00,48.8,42.9,30.01,SSE,148,3.0,5.0,80,0.00,,---,0.00,VWS V13.00,2013-05-25 16:10:00,
2013-05-25 09:15:00,49.2,43.3,30.01,East,101,0.0,5.0,80,0.00,,---,0.00,VWS V13.00,2013-05-25 16:15:00,
2013-05-25 09:20:00,49.7,43.1,30.00,East,101,0.0,5.0,78,0.00,,---,0.00,VWS V13.00,2013-05-25 16:20:00,
2013-05-25 09:25:00,50.0,43.4,30.00,East,101,1.0,5.0,78,0.00,,---,0.00,VWS V13.00,2013-05-25 16:25:00,
2013-05-25 09:30:00,50.5,43.9,30.00,ESE,105,1.0,3.0,78,0.00,,---,0.00,VWS V13.00,2013-05-25 16:30:00,
2013-05-25 09:35:00,50.8,43.9,30.00,East,101,1.0,4.0,77,0.00,,---,0.00,VWS V13.00,2013-05-25 16:35:00,
2013-05-25 09:40:00,51.2,43.9,30.00,East,101,0.0,4.0,76,0.00,,---,0.00,VWS V13.00,2013-05-25 16:40:00,
2013-05-25 09:45:00,51.6,44.0,29.99,SE,131,2.0,6.0,75,0.00,,---,0.00,VWS V13.00,2013-05-25 16:45:00,
2013-05-25 09:50:00,52.1,43.7,29.99,SE,126,0.0,6.0,73,0.00,,---,0.00,VWS V13.00,2013-05-25 16:50:00,
2013-05-25 09:55:00,52.6,44.2,29.99,East,92,0.0,6.0,73,0.00,,---,0.00,VWS V13.00,2013-05-25 16:55:00,
2013-05-25 10:00:00,53.0,43.9,29.99,East,98,2.0,3.0,71,0.00,,---,0.00,VWS V13.00,2013-05-25 17:00:00,
2013-05-25 10:05:00,53.5,44.7,29.99,SSE,158,0.0,6.0,72,0.00,,---,0.00,VWS V13.00,2013-05-25 17:05:00,
2013-05-25 10:10:00,54.3,45.1,29.99,SSE,160,3.0,7.0,71,0.00,,---,0.00,VWS V13.00,2013-05-25 17:10:00,
2013-05-25 10:15:00,55.0,45.4,29.98,SE,142,3.0,7.0,70,0.00,,---,0.00,VWS V13.00,2013-05-25 17:15:00,
2013-05-25 10:20:00,55.3,44.2,29.99,SE,133,2.0,7.0,66,0.00,,---,0.00,VWS V13.00,2013-05-25 17:20:00,
2013-05-25 10:25:00,55.4,44.6,29.98,East,80,2.0,7.0,67,0.00,,---,0.00,VWS V13.00,2013-05-25 17:25:00,
2013-05-25 10:30:00,55.5,45.5,29.99,SE,131,4.0,9.0,69,0.00,,---,0.00,VWS V13.00,2013-05-25 17:30:00,
2013-05-25 10:35:00,55.8,45.0,29.99,ESE,123,6.0,9.0,67,0.00,,---,0.00,VWS V13.00,2013-05-25 17:35:00,
2013-05-25 10:40:00,56.1,44.5,29.99,SE,134,5.0,9.0,65,0.00,,---,0.00,VWS V13.00,2013-05-25 17:40:00,
2013-05-25 10:45:00,56.2,44.6,29.99,SE,125,2.0,9.0,65,0.00,,---,0.00,VWS V13.00,2013-05-25 17:45:00,
2013-05-25 10:50:00,56.2,45.0,29.99,SE,132,1.0,9.0,66,0.00,,---,0.00,VWS V13.00,2013-05-25 17:50:00,
2013-05-25 10:55:00,56.2,44.2,29.99,SSW,192,2.0,9.0,64,0.00,,---,0.00,VWS V13.00,2013-05-25 17:55:00,
2013-05-25 11:00:00,56.2,44.6,29.99,SE,144,4.0,4.0,65,0.00,,---,0.00,VWS V13.00,2013-05-25 18:00:00,
2013-05-25 11:05:00,56.2,44.2,29.98,SE,128,7.0,9.0,64,0.00,,---,0.00,VWS V13.00,2013-05-25 18:05:00,
2013-05-25 11:10:00,56.0,44.0,29.99,ESE,111,4.0,10.0,64,0.00,,---,0.00,VWS V13.00,2013-05-25 18:10:00,
2013-05-25 11:15:00,55.9,43.1,29.99,SSE,151,1.0,10.0,62,0.00,,---,0.00,VWS V13.00,2013-05-25 18:15:00,
2013-05-25 11:20:00,56.0,44.0,29.99,SSE,159,0.0,10.0,64,0.00,,---,0.00,VWS V13.00,2013-05-25 18:20:00,
2013-05-25 11:25:00,56.1,43.7,29.99,SE,136,1.0,10.0,63,0.00,,---,0.00,VWS V13.00,2013-05-25 18:25:00,
2013-05-25 11:30:00,56.5,44.5,29.98,South,172,0.0,10.0,64,0.00,,---,0.00,VWS V13.00,2013-05-25 18:30:00,
2013-05-25 11:35:00,56.8,45.2,29.98,South,169,0.0,10.0,65,0.00,,---,0.00,VWS V13.00,2013-05-25 18:35:00,
2013-05-25 11:40:00,57.1,45.0,29.98,ESE,105,2.0,10.0,64,0.00,,---,0.00,VWS V13.00,2013-05-25 18:40:00,
2013-05-25 11:45:00,57.2,44.3,29.98,East,98,3.0,10.0,62,0.00,,---,0.00,VWS V13.00,2013-05-25 18:45:00,
2013-05-25 11:50:00,57.5,44.6,29.97,SW,232,4.0,10.0,62,0.00,,---,0.00,VWS V13.00,2013-05-25 18:50:00,
2013-05-25 11:55:00,57.7,45.2,29.97,ESE,116,2.0,10.0,63,0.00,,---,0.00,VWS V13.00,2013-05-25 18:55:00,
2013-05-25 12:00:00,58.0,44.6,29.98,SE,125,6.0,11.0,61,0.00,,---,0.00,VWS V13.00,2013-05-25 19:00:00,
2013-05-25 12:05:00,58.2,45.3,29.98,ESE,121,0.0,11.0,62,0.00,,---,0.00,VWS V13.00,2013-05-25 19:05:00,
2013-05-25 12:10:00,58.6,45.2,29.97,South,176,5.0,11.0,61,0.00,,---,0.00,VWS V13.00,2013-05-25 19:10:00,
2013-05-25 12:14:00,59.0,45.2,29.97,ESE,105,0.0,12.0,60,0.00,,---,0.00,VWS V13.00,2013-05-25 19:14:00,
2013-05-25 12:19:00,60.0,44.7,29.97,SSE,165,2.0,12.0,57,0.00,,---,0.00,VWS V13.00,2013-05-25 19:19:00,
2013-05-25 12:24:00,60.3,44.6,29.97,WSW,246,0.0,12.0,56,0.00,,---,0.00,VWS V13.00,2013-05-25 19:24:00,
2013-05-25 12:29:00,60.6,45.3,29.96,ESE,103,1.0,3.0,57,0.00,,---,0.00,VWS V13.00,2013-05-25 19:29:00,
2013-05-25 12:34:00,60.4,44.7,29.97,ESE,106,2.0,11.0,56,0.00,,---,0.00,VWS V13.00,2013-05-25 19:34:00,
2013-05-25 12:40:00,60.1,43.4,29.97,ESE,103,2.0,11.0,54,0.00,,---,0.00,VWS V13.00,2013-05-25 19:40:00,
2013-05-25 12:45:00,60.0,42.8,29.97,ESE,123,4.0,11.0,53,0.00,,---,0.00,VWS V13.00,2013-05-25 19:45:00,
2013-05-25 12:49:00,60.0,43.8,29.97,SE,143,5.0,11.0,55,0.00,,---,0.00,VWS V13.00,2013-05-25 19:49:00,
2013-05-25 12:54:00,60.2,42.5,29.97,East,90,3.0,11.0,52,0.00,,---,0.00,VWS V13.00,2013-05-25 19:54:00,
2013-05-25 12:59:00,60.0,42.3,29.97,SE,137,4.0,4.0,52,0.00,,---,0.00,VWS V13.00,2013-05-25 19:59:00,
2013-05-25 13:04:00,59.8,41.7,29.97,ESE,119,1.0,7.0,51,0.00,,---,0.00,VWS V13.00,2013-05-25 20:04:00,
2013-05-25 13:09:00,60.0,41.3,29.97,ESE,114,2.0,7.0,50,0.00,,---,0.00,VWS V13.00,2013-05-25 20:09:00,
2013-05-25 13:14:00,60.2,43.5,29.97,East,94,1.0,7.0,54,0.00,,---,0.00,VWS V13.00,2013-05-25 20:14:00,
2013-05-25 13:19:00,60.2,44.0,29.97,East,95,0.0,7.0,55,0.00,,---,0.00,VWS V13.00,2013-05-25 20:19:00,
2013-05-25 13:24:00,61.6,44.8,29.96,East,99,2.0,7.0,54,0.00,,---,0.00,VWS V13.00,2013-05-25 20:24:00,
2013-05-25 13:29:00,61.5,43.2,29.96,ESE,112,4.0,5.0,51,0.00,,---,0.00,VWS V13.00,2013-05-25 20:29:00,
2013-05-25 13:34:00,61.1,42.3,29.97,SE,125,3.0,9.0,50,0.00,,---,0.00,VWS V13.00,2013-05-25 20:34:00,
2013-05-25 13:39:00,60.8,43.1,29.96,SE,138,3.0,9.0,52,0.00,,---,0.00,VWS V13.00,2013-05-25 20:39:00,
2013-05-25 13:44:00,61.0,42.2,29.96,ESE,106,1.0,9.0,50,0.00,,---,0.00,VWS V13.00,2013-05-25 20:44:00,
2013-05-25 13:49:00,61.4,42.6,29.96,SE,126,4.0,9.0,50,0.00,,---,0.00,VWS V13.00,2013-05-25 20:49:00,
2013-05-25 13:54:00,61.3,42.0,29.96,ESE,113,2.0,9.0,49,0.00,,---,0.00,VWS V13.00,2013-05-25 20:54:00,
2013-05-25 13:59:00,61.3,42.5,29.97,South,184,0.0,8.0,50,0.00,,---,0.00,VWS V13.00,2013-05-25 20:59:00,
2013-05-25 14:04:00,62.0,43.7,29.96,SE,126,1.0,8.0,51,0.00,,---,0.00,VWS V13.00,2013-05-25 21:04:00,
2013-05-25 14:09:00,61.6,41.7,29.96,ESE,113,3.0,8.0,48,0.00,,---,0.00,VWS V13.00,2013-05-25 21:09:00,
2013-05-25 14:14:00,61.6,42.8,29.96,ESE,107,3.0,8.0,50,0.00,,---,0.00,VWS V13.00,2013-05-25 21:14:00,
2013-05-25 14:19:00,61.4,43.1,29.96,SE,137,4.0,8.0,51,0.00,,---,0.00,VWS V13.00,2013-05-25 21:19:00,
2013-05-25 14:24:00,61.8,43.5,29.96,ESE,113,1.0,9.0,51,0.00,,---,0.00,VWS V13.00,2013-05-25 21:24:00,
2013-05-25 14:29:00,62.7,44.8,29.96,SE,128,4.0,4.0,52,0.00,,---,0.00,VWS V13.00,2013-05-25 21:29:00,
2013-05-25 14:34:00,63.2,44.3,29.96,SE,124,0.0,6.0,50,0.00,,---,0.00,VWS V13.00,2013-05-25 21:34:00,
2013-05-25 14:39:00,63.6,45.7,29.95,SW,217,0.0,6.0,52,0.00,,---,0.00,VWS V13.00,2013-05-25 21:39:00,
2013-05-25 14:44:00,63.7,44.2,29.95,NNE,15,4.0,7.0,49,0.00,,---,0.00,VWS V13.00,2013-05-25 21:44:00,
2013-05-25 14:49:00,63.5,42.9,29.95,NNE,15,2.0,7.0,47,0.00,,---,0.00,VWS V13.00,2013-05-25 21:49:00,
2013-05-25 14:54:00,63.1,43.7,29.96,East,90,0.0,7.0,49,0.00,,---,0.00,VWS V13.00,2013-05-25 21:54:00,
2013-05-25 14:59:00,62.3,42.4,29.96,East,90,0.0,3.0,48,0.00,,---,0.00,VWS V13.00,2013-05-25 21:59:00,
2013-05-25 15:04:00,61.6,41.2,29.96,North,355,1.0,6.0,47,0.00,,---,0.00,VWS V13.00,2013-05-25 22:04:00,
2013-05-25 15:09:00,61.3,43.0,29.96,NW,323,0.0,6.0,51,0.00,,---,0.00,VWS V13.00,2013-05-25 22:09:00,
2013-05-25 15:14:00,61.0,43.3,29.96,East,98,2.0,6.0,52,0.00,,---,0.00,VWS V13.00,2013-05-25 22:14:00,
2013-05-25 15:19:00,60.5,41.8,29.96,East,92,0.0,6.0,50,0.00,,---,0.00,VWS V13.00,2013-05-25 22:19:00,
2013-05-25 15:24:00,60.3,42.1,29.96,East,92,0.0,6.0,51,0.00,,---,0.00,VWS V13.00,2013-05-25 22:24:00,
2013-05-25 15:29:00,60.2,42.0,29.96,East,92,0.0,1.0,51,0.00,,---,0.00,VWS V13.00,2013-05-25 22:29:00,
2013-05-25 15:34:00,60.1,41.4,29.96,SSE,153,0.0,4.0,50,0.00,,---,0.00,VWS V13.00,2013-05-25 22:34:00,
2013-05-25 15:39:00,60.1,40.9,29.96,ESE,103,4.0,5.0,49,0.00,,---,0.00,VWS V13.00,2013-05-25 22:39:00,
2013-05-25 15:44:00,60.0,40.3,29.96,East,100,0.0,5.0,48,0.00,,---,0.00,VWS V13.00,2013-05-25 22:44:00,
2013-05-25 15:49:00,59.9,40.7,29.96,East,95,3.0,6.0,49,0.00,,---,0.00,VWS V13.00,2013-05-25 22:49:00,
2013-05-25 15:54:00,59.7,41.0,29.96,East,86,1.0,6.0,50,0.00,,---,0.00,VWS V13.00,2013-05-25 22:54:00,
2013-05-25 15:59:00,59.6,43.0,29.96,East,95,1.0,1.0,54,0.00,,---,0.00,VWS V13.00,2013-05-25 22:59:00,
2013-05-25 16:04:00,59.4,41.3,29.96,ESE,110,5.0,6.0,51,0.00,,---,0.00,VWS V13.00,2013-05-25 23:04:00,
2013-05-25 16:09:00,59.3,41.2,29.97,ESE,102,0.0,6.0,51,0.00,,---,0.00,VWS V13.00,2013-05-25 23:09:00,
2013-05-25 16:14:00,59.2,41.1,29.97,ESE,123,2.0,6.0,51,0.00,,---,0.00,VWS V13.00,2013-05-25 23:14:00,
2013-05-25 16:19:00,59.0,44.3,29.97,SE,126,1.0,6.0,58,0.00,,---,0.00,VWS V13.00,2013-05-25 23:19:00,
2013-05-25 16:24:00,59.0,45.6,29.97,SE,126,0.0,6.0,61,0.00,,---,0.00,VWS V13.00,2013-05-25 23:24:00,
2013-05-25 16:29:00,58.5,45.1,29.97,ESE,109,1.0,1.0,61,0.00,,---,0.00,VWS V13.00,2013-05-25 23:29:00,
2013-05-25 16:34:00,58.0,44.6,29.97,ESE,109,2.0,3.0,61,0.00,,---,0.00,VWS V13.00,2013-05-25 23:34:00,
2013-05-25 16:39:00,57.6,44.3,29.97,ESE,109,0.0,3.0,61,0.00,,---,0.00,VWS V13.00,2013-05-25 23:39:00,
2013-05-25 16:44:00,57.4,44.9,29.98,ESE,107,0.0,3.0,63,0.00,,---,0.00,VWS V13.00,2013-05-25 23:44:00,
2013-05-25 16:49:00,57.3,44.4,29.98,ENE,59,3.0,4.0,62,0.00,,---,0.00,VWS V13.00,2013-05-25 23:49:00,
2013-05-25 16:54:00,57.7,43.0,29.97,ENE,65,0.0,4.0,58,0.00,,---,0.00,VWS V13.00,2013-05-25 23:54:00,
2013-05-25 16:59:00,58.0,43.3,29.97,ENE,65,3.0,3.0,58,0.00,,---,0.00,VWS V13.00,2013-05-25 23:59:00,
2013-05-25 17:04:00,58.2,43.1,29.97,ENE,64,1.0,6.0,57,0.00,,---,0.00,VWS V13.00,2013-05-26 00:04:00,
2013-05-25 17:09:00,58.3,42.7,29.97,East,82,2.0,6.0,56,0.00,,---,0.00,VWS V13.00,2013-05-26 00:09:00,
2013-05-25 17:14:00,58.4,42.8,29.97,ENE,74,0.0,6.0,56,0.00,,---,0.00,VWS V13.00,2013-05-26 00:14:00,
2013-05-25 17:19:00,58.4,42.8,29.97,ENE,67,0.0,6.0,56,0.00,,---,0.00,VWS V13.00,2013-05-26 00:19:00,
2013-05-25 17:24:00,58.3,42.7,29.97,ENE,67,0.0,6.0,56,0.00,,---,0.00,VWS V13.00,2013-05-26 00:24:00,
2013-05-25 17:29:00,58.2,42.6,29.97,ENE,70,2.0,2.0,56,0.00,,---,0.00,VWS V13.00,2013-05-26 00:29:00,
2013-05-25 17:34:00,58.1,43.4,29.97,ENE,69,0.0,2.0,58,0.00,,---,0.00,VWS V13.00,2013-05-26 00:34:00,
2013-05-25 17:39:00,58.1,43.4,29.97,ENE,69,0.0,2.0,58,0.00,,---,0.00,VWS V13.00,2013-05-26 00:39:00,
2013-05-25 17:44:00,58.0,43.3,29.97,ENE,70,0.0,2.0,58,0.00,,---,0.00,VWS V13.00,2013-05-26 00:44:00,
2013-05-25 17:49:00,57.9,43.2,29.97,ENE,70,0.0,2.0,58,0.00,,---,0.00,VWS V13.00,2013-05-26 00:49:00,
2013-05-25 17:54:00,58.0,43.3,29.97,ENE,70,0.0,2.0,58,0.00,,---,0.00,VWS V13.00,2013-05-26 00:54:00,
2013-05-25 17:59:00,58.0,43.8,29.96,ENE,70,0.0,2.0,59,0.00,,---,0.00,VWS V13.00,2013-05-26 00:59:00,
2013-05-25 18:04:00,58.2,43.5,29.96,ENE,69,0.0,2.0,58,0.00,,---,0.00,VWS V13.00,2013-05-26 01:04:00,
2013-05-25 18:09:00,58.3,43.2,29.96,NNE,28,1.0,3.0,57,0.00,,---,0.00,VWS V13.00,2013-05-26 01:09:00,
2013-05-25 18:14:00,58.6,43.0,29.96,NNE,28,0.0,3.0,56,0.00,,---,0.00,VWS V13.00,2013-05-26 01:14:00,
2013-05-25 18:19:00,59.0,42.9,29.95,NNE,25,0.0,3.0,55,0.00,,---,0.00,VWS V13.00,2013-05-26 01:19:00,
2013-05-25 18:24:00,59.0,40.9,29.95,ESE,111,0.0,5.0,51,0.00,,---,0.00,VWS V13.00,2013-05-26 01:24:00,
2013-05-25 18:29:00,59.1,40.0,29.95,ESE,121,2.0,4.0,49,0.00,,---,0.00,VWS V13.00,2013-05-26 01:29:00,
2013-05-25 18:34:00,59.4,40.2,29.95,SSE,165,0.0,5.0,49,0.00,,---,0.00,VWS V13.00,2013-05-26 01:34:00,
2013-05-25 18:39:00,59.4,40.2,29.95,SSE,165,2.0,5.0,49,0.00,,---,0.00,VWS V13.00,2013-05-26 01:39:00,
2013-05-25 18:44:00,59.5,41.4,29.95,SSE,165,0.0,5.0,51,0.00,,---,0.00,VWS V13.00,2013-05-26 01:44:00,
2013-05-25 18:49:00,59.4,40.8,29.95,SSE,165,0.0,5.0,50,0.00,,---,0.00,VWS V13.00,2013-05-26 01:49:00,
2013-05-25 18:54:00,59.3,40.2,29.95,SE,136,1.0,5.0,49,0.00,,---,0.00,VWS V13.00,2013-05-26 01:54:00,
2013-05-25 18:59:00,59.2,40.6,29.94,SE,136,0.0,2.0,50,0.00,,---,0.00,VWS V13.00,2013-05-26 01:59:00,
2013-05-25 19:04:00,59.1,41.0,29.94,SE,136,0.0,4.0,51,0.00,,---,0.00,VWS V13.00,2013-05-26 02:04:00,
2013-05-25 19:09:00,59.0,41.4,29.94,SE,136,0.0,4.0,52,0.00,,---,0.00,VWS V13.00,2013-05-26 02:09:00,
2013-05-25 19:14:00,59.0,41.4,29.94,SE,136,0.0,4.0,52,0.00,,---,0.00,VWS V13.00,2013-05-26 02:14:00,
2013-05-25 19:19:00,59.0,42.9,29.94,SE,136,0.0,4.0,55,0.00,,---,0.00,VWS V13.00,2013-05-26 02:19:00,
2013-05-25 19:24:00,59.0,43.8,29.94,SE,136,0.0,4.0,57,0.00,,---,0.00,VWS V13.00,2013-05-26 02:24:00,
2013-05-25 19:29:00,59.0,43.3,29.94,SE,136,0.0,0.0,56,0.00,,---,0.00,VWS V13.00,2013-05-26 02:29:00,
2013-05-25 19:34:00,59.0,43.8,29.94,SE,136,1.0,2.0,57,0.00,,---,0.00,VWS V13.00,2013-05-26 02:34:00,
2013-05-25 19:39:00,59.0,43.3,29.94,SE,136,0.0,2.0,56,0.00,,---,0.00,VWS V13.00,2013-05-26 02:39:00,
2013-05-25 19:44:00,58.9,43.7,29.94,SE,136,0.0,2.0,57,0.00,,---,0.00,VWS V13.00,2013-05-26 02:44:00,
2013-05-25 19:49:00,58.7,43.1,29.94,SE,136,0.0,2.0,56,0.00,,---,0.00,VWS V13.00,2013-05-26 02:49:00,
2013-05-25 19:54:00,58.6,43.0,29.94,SE,136,0.0,2.0,56,0.00,,---,0.00,VWS V13.00,2013-05-26 02:54:00,
2013-05-25 19:59:00,58.5,43.8,29.93,SE,136,0.0,0.0,58,0.00,,---,0.00,VWS V13.00,2013-05-26 02:59:00,
2013-05-25 20:04:00,58.4,42.8,29.93,SE,136,0.0,0.0,56,0.00,,---,0.00,VWS V13.00,2013-05-26 03:04:00,
2013-05-25 20:09:00,58.2,42.6,29.93,SE,136,0.0,0.0,56,0.00,,---,0.00,VWS V13.00,2013-05-26 03:09:00,
2013-05-25 20:14:00,58.1,43.9,29.93,SE,136,0.0,1.0,59,0.00,,---,0.00,VWS V13.00,2013-05-26 03:14:00,
2013-05-25 20:19:00,57.8,44.0,29.93,SE,136,0.0,2.0,60,0.00,,---,0.00,VWS V13.00,2013-05-26 03:19:00,
2013-05-25 20:24:00,57.5,43.7,29.93,SE,136,0.0,2.0,60,0.00,,---,0.00,VWS V13.00,2013-05-26 03:24:00,
2013-05-25 20:29:00,57.2,43.5,29.94,SE,136,0.0,0.0,60,0.00,,---,0.00,VWS V13.00,2013-05-26 03:29:00,
2013-05-25 20:34:00,56.9,43.6,29.94,SE,136,1.0,3.0,61,0.00,,---,0.00,VWS V13.00,2013-05-26 03:34:00,
2013-05-25 20:39:00,56.5,44.1,29.94,SE,136,0.0,3.0,63,0.00,,---,0.00,VWS V13.00,2013-05-26 03:39:00,
2013-05-25 20:44:00,56.1,44.5,29.94,SE,136,2.0,3.0,65,0.00,,---,0.00,VWS V13.00,2013-05-26 03:44:00,
2013-05-25 20:49:00,55.6,44.4,29.94,SW,234,2.0,3.0,66,0.00,,---,0.00,VWS V13.00,2013-05-26 03:49:00,
2013-05-25 20:54:00,55.1,44.3,29.94,SW,235,3.0,3.0,67,0.00,,---,0.00,VWS V13.00,2013-05-26 03:54:00,
2013-05-25 20:59:00,54.5,44.2,29.93,WSW,254,2.0,3.0,68,0.00,,---,0.00,VWS V13.00,2013-05-26 03:59:00,
2013-05-25 21:01:00,54.3,44.0,29.93,WSW,254,2.0,3.0,68,0.00,,---,0.00,VWS V13.00,2013-05-26 04:01:00,
2013-05-25 21:06:00,53.8,44.3,29.94,WSW,254,2.0,3.0,70,0.00,,---,0.00,VWS V13.00,2013-05-26 04:06:00,
2013-05-25 21:11:00,53.3,44.2,29.94,WSW,254,2.0,3.0,71,0.00,,---,0.00,VWS V13.00,2013-05-26 04:11:00,
2013-05-25 21:16:00,52.8,44.0,29.94,WSW,254,0.0,3.0,72,0.00,,---,0.00,VWS V13.00,2013-05-26 04:16:00,
2013-05-25 21:21:00,52.4,43.7,29.95,WSW,254,0.0,3.0,72,0.00,,---,0.00,VWS V13.00,2013-05-26 04:21:00,
2013-05-25 21:26:00,51.8,43.1,29.95,WSW,254,3.0,3.0,72,0.00,,---,0.00,VWS V13.00,2013-05-26 04:26:00,
2013-05-25 21:31:00,51.3,43.0,29.95,WSW,254,2.0,3.0,73,0.00,,---,0.00,VWS V13.00,2013-05-26 04:31:00,
2013-05-25 21:36:00,50.8,42.8,29.95,WSW,254,2.0,3.0,74,0.00,,---,0.00,VWS V13.00,2013-05-26 04:36:00,
2013-05-25 21:41:00,50.1,42.5,29.95,WSW,257,2.0,4.0,75,0.00,,---,0.00,VWS V13.00,2013-05-26 04:41:00,
2013-05-25 21:46:00,49.7,42.1,29.95,WSW,257,3.0,4.0,75,0.00,,---,0.00,VWS V13.00,2013-05-26 04:46:00,
2013-05-25 21:51:00,49.2,42.0,29.95,WSW,257,2.0,4.0,76,0.00,,---,0.00,VWS V13.00,2013-05-26 04:51:00,
2013-05-25 21:56:00,48.8,41.6,29.95,WSW,257,3.0,4.0,76,0.00,,---,0.00,VWS V13.00,2013-05-26 04:56:00,
2013-05-25 22:01:00,48.4,41.5,29.95,WSW,257,3.0,3.0,77,0.00,,---,0.00,VWS V13.00,2013-05-26 05:01:00,
2013-05-25 22:06:00,47.9,41.0,29.95,WSW,257,1.0,3.0,77,0.00,,---,0.00,VWS V13.00,2013-05-26 05:06:00,
2013-05-25 22:11:00,47.6,41.1,29.95,WSW,257,2.0,3.0,78,0.00,,---,0.00,VWS V13.00,2013-05-26 05:11:00,
2013-05-25 22:16:00,47.2,40.7,29.96,WSW,257,3.0,3.0,78,0.00,,---,0.00,VWS V13.00,2013-05-26 05:16:00,
2013-05-25 22:21:00,46.9,40.7,29.96,WSW,257,1.0,3.0,79,0.00,,---,0.00,VWS V13.00,2013-05-26 05:21:00,
2013-05-25 22:26:00,46.6,40.5,29.96,WSW,257,2.0,4.0,79,0.00,,---,0.00,VWS V13.00,2013-05-26 05:26:00,
2013-05-25 22:31:00,46.2,40.4,29.96,WNW,285,3.0,3.0,80,0.00,,---,0.00,VWS V13.00,2013-05-26 05:31:00,
2013-05-25 22:36:00,46.0,40.2,29.96,WNW,285,3.0,3.0,80,0.00,,---,0.00,VWS V13.00,2013-05-26 05:36:00,
2013-05-25 22:41:00,45.7,39.9,29.96,WNW,284,2.0,3.0,80,0.00,,---,0.00,VWS V13.00,2013-05-26 05:41:00,
2013-05-25 22:46:00,45.5,39.7,29.96,WNW,285,1.0,3.0,80,0.00,,---,0.00,VWS V13.00,2013-05-26 05:46:00,
2013-05-25 22:51:00,45.2,39.7,29.97,WNW,284,1.0,3.0,81,0.00,,---,0.00,VWS V13.00,2013-05-26 05:51:00,
2013-05-25 22:56:00,45.0,39.5,29.97,WNW,285,2.0,3.0,81,0.00,,---,0.00,VWS V13.00,2013-05-26 05:56:00,
2013-05-25 23:01:00,44.8,39.7,29.96,WNW,285,1.0,3.0,82,0.00,,---,0.00,VWS V13.00,2013-05-26 06:01:00,
2013-05-25 23:06:00,44.6,39.5,29.96,WNW,284,3.0,3.0,82,0.00,,---,0.00,VWS V13.00,2013-05-26 06:06:00,
2013-05-25 23:11:00,44.4,39.3,29.97,WNW,285,2.0,3.0,82,0.00,,---,0.00,VWS V13.00,2013-05-26 06:11:00,
2013-05-25 23:16:00,44.2,39.1,29.97,WNW,284,3.0,3.0,82,0.00,,---,0.00,VWS V13.00,2013-05-26 06:16:00,
2013-05-25 23:21:00,44.0,39.2,29.97,WNW,284,3.0,3.0,83,0.00,,---,0.00,VWS V13.00,2013-05-26 06:21:00,
2013-05-25 23:26:00,43.8,39.0,29.97,WNW,284,3.0,3.0,83,0.00,,---,0.00,VWS V13.00,2013-05-26 06:26:00,
2013-05-25 23:31:00,43.6,39.1,29.97,WNW,285,2.0,4.0,84,0.00,,---,0.00,VWS V13.00,2013-05-26 06:31:00,
2013-05-25 23:36:00,43.5,39.0,29.97,WNW,285,2.0,4.0,84,0.00,,---,0.00,VWS V13.00,2013-05-26 06:36:00,
2013-05-25 23:41:00,43.4,39.2,29.97,WNW,285,2.0,4.0,85,0.00,,---,0.00,VWS V13.00,2013-05-26 06:41:00,
2013-05-25 23:46:00,43.4,39.2,29.97,WNW,284,2.0,4.0,85,0.00,,---,0.00,VWS V13.00,2013-05-26 06:46:00,
2013-05-25 23:51:00,43.3,39.1,29.97,WNW,284,2.0,4.0,85,0.00,,---,0.00,VWS V13.00,2013-05-26 06:51:00,
2013-05-25 23:56:00,43.3,39.1,29.96,WNW,285,1.0,4.0,85,0.00,,---,0.00,VWS V13.00,2013-05-26 06:56:00,